DELTA 1 DEB

Satellite information

Favourite Embed

Satellite Type and Status

DEBRISIN ORBIT

Key statistics

Satellite DELTA 1 DEB at a glance.

Uptime

17345

Days in orbit

Revolutions

≈ 14.2

Per day

Orbit

SSO

Sun Synchronous Orbit

Inclination

98.8

Latest

Satellite identification and parameters

Extended collection of information and parameters for DELTA 1 DEB.

Object identification

Identified? True

Debris? True

Object name: DELTA 1 DEB

International designator: 1978-026GF

Object number (NORAD): 14465

Object ID (CCSDS): 14465

Country: UNITED STATES OF AMERICA (US)

Current information (Y/N): Y

RCS size: SMALL

Orbital parameters

Period: 101.714 minutes

Inclination: 98.7527 deg

SMA: 7217.952 km

Apoapsis: 917.239 km

Periapsis: 762.395 km

RAAN: 37.1954 deg

Eccentricy: 0.01072633

Argument of periapsis: 356.8667 deg

Mean anomaly: 32.4335 deg

Mean motion: 14.15734336 rev/day

Mean motion (dot): 0.00001957 rev/day2

B* drag term: 0.00096433112 1/REarth

Two-line elements (TLE)

Creation date: Aug. 27, 2025, 8:01 p.m.

Reference frame: TEME

Reference center: EARTH

Epoch: Aug. 27, 2025, 9:25 a.m. UTC

TLE line 0: 0 DELTA 1 DEB

TLE line 1: 1 14465U 78026GF 25239.39257124 .00001957 00000-0 96433-3 0 9997

TLE line 2: 2 14465 98.7527 37.1954 0107263 356.8667 32.4335 14.15734336177269

Live tracking on map

Real-time ground track for satellite DELTA 1 DEB.

In-orbit conjunctions

A list of the most updated potential collisions computed for object DELTA 1 DEB.

Target Orbit TCA Probability of collision Miss distance Type
SL-3 R/B LEO 2025-02-20 11:49:26 0.000219741 234.0 (m) ROCKET BODY
CBERS 1 SSO 2024-12-29 13:01:26 0.000135042 313.0 (m) PAYLOAD
CZ-6A DEB LEO 2024-11-07 02:40:18 0.0001533035 672.0 (m) DEBRIS
SL-3 R/B LEO 2024-10-01 03:20:02 0.0002016608 192.0 (m) ROCKET BODY
FENGYUN 1C DEB SSO 2024-08-20 10:14:12 0.0001651366 209.0 (m) DEBRIS

Associated space launch

Earth observation satellite

DELTA 1 DEB was lifted into orbit during the mission ‘Delta 2910 | Landsat 3’, on board a Delta 2910 space rocket.

The launch took place on March 5, 1978, 5:54 p.m. from Space Launch Complex 2W.

For more information about the launch, click the button.

Launch to space Delta 2910 | Landsat 3
Delta 2910 | Landsat 3

Agency: N/A

Status: Launch Successful

Launch date: March 5, 1978, 5:54 p.m. UTC

Rocket: Delta 2910

Launch pad: Space Launch Complex 2W

Location: Vandenberg SFB, CA, USA

...

Latest news about this satellite

There are no fresh news available about this satellite. Check back as we update our databases every day.


Newsletter sign-up

Weekly statistics, charts and insights to help you stay on top of the space industry.